Auckland Air Field, New Zealand

11:38 PM NZDT on January 24, 2017 (GMT +1300)
Auckland International

Weather History for NZAA - December, 2013

Change the Weather History Date:

Monday, December 23, 2013

  Actual Average Record
Temperature  
Mean Temperature 63 °F -  
Max Temperature 69 °F 69 °F 77 °F (1997)
Min Temperature 57 °F 58 °F 51 °F (2006)
Degree Days  
Heating Degree Days 2    
Growing Degree Days 13 (Base 50)    
Moisture  
Dew Point 52 °F    
Average Humidity 67    
Maximum Humidity 82    
Minimum Humidity 49    
Precipitation  
Precipitation 0.00 in - - ()
Sea Level Pressure  
Sea Level Pressure 30.03 in    
Wind  
Wind Speed 9 mph ()    
Max Wind Speed 15 mph    
Max Gust Speed -    
Visibility 6.2 miles    
Events      
Averages and records for this station are not official NWS values.
T = Trace of Precipitation, MM = Missing Value Source: Averaged Metar Reports

Daily Weather History Graph

Daily Weather History Graph

Search for Another Location

Airport or City:

Trip Planner

Search our weather history database for the weather conditions in past years. The results will help you decide how hot, cold, wet, or windy it might be!

Date:

Astronomy

Dec. 23, 2013 Rise Set
Actual Time 5:58 AM NZDT 8:40 PM NZDT
Civil Twilight 5:27 AM NZDT 9:11 PM NZDT
Nautical Twilight 4:49 AM NZDT 9:50 PM NZDT
Astronomical Twilight 4:05 AM NZDT 10:33 PM NZDT
Moon 11:58 PM NZDT (12/23) 11:00 AM NZDT (12/23)
Length of Visible Light 15h 44m
Length of Day
14h 42m
Waning Gibbous, 75% of the Moon is Illuminated
Dec 23
Waning Gibbous
Dec 26
Last Quarter
Jan 2
New
Jan 8
First Quarter
Jan 16
Full

Hourly Weather History & Observations

Time (NZDT) Temp. Dew Point Humidity Pressure Visibility Wind Dir Wind Speed Gust Speed Precip Events Conditions
12:00 AM 59.0 °F 51.8 °F 77% 29.98 in 6.2 mi South 6.9 mph - N/A   Unknown
12:30 AM 59.0 °F 51.8 °F 77% 29.98 in 6.2 mi SSW 6.9 mph - N/A   Unknown
1:00 AM 59.0 °F 50.0 °F 72% 29.98 in 6.2 mi SSW 5.8 mph - N/A   Unknown
1:30 AM 59.0 °F 51.8 °F 77% 29.98 in 6.2 mi SSW 9.2 mph - N/A   Unknown
2:00 AM 60.8 °F 51.8 °F 72% 30.01 in 6.2 mi SSW 13.8 mph - N/A   Unknown
2:30 AM 60.8 °F 51.8 °F 72% 30.01 in 6.2 mi SSW 12.7 mph - N/A   Unknown
3:00 AM 60.8 °F 51.8 °F 72% 29.98 in 6.2 mi SSW 10.4 mph - N/A   Unknown
3:30 AM 59.0 °F 51.8 °F 77% 29.98 in 6.2 mi SSW 9.2 mph - N/A   Unknown
4:00 AM 59.0 °F 51.8 °F 77% 29.98 in 6.2 mi SSW 8.1 mph - N/A   Unknown
4:30 AM 59.0 °F 51.8 °F 77% 29.98 in 6.2 mi SSW 8.1 mph - N/A   Unknown
5:00 AM 59.0 °F 50.0 °F 72% 29.98 in 6.2 mi SSW 10.4 mph - N/A   Unknown
5:30 AM 59.0 °F 50.0 °F 72% 30.01 in 6.2 mi SSW 8.1 mph - N/A   Unknown
6:00 AM 57.2 °F 51.8 °F 82% 30.01 in 6.2 mi SSW 6.9 mph - N/A   Unknown
6:30 AM 57.2 °F 51.8 °F 82% 30.01 in 6.2 mi SSW 6.9 mph - N/A   Unknown
7:00 AM 59.0 °F 51.8 °F 77% 30.01 in 6.2 mi SSW 6.9 mph - N/A   Unknown
7:30 AM 59.0 °F 51.8 °F 77% 30.04 in 6.2 mi SSE 5.8 mph - N/A   Unknown
8:00 AM 60.8 °F 51.8 °F 72% 30.04 in 6.2 mi SSE 4.6 mph - N/A   Unknown
8:30 AM 60.8 °F 53.6 °F 77% 30.04 in 6.2 mi SSE 6.9 mph - N/A   Unknown
9:00 AM 62.6 °F 53.6 °F 72% 30.04 in 6.2 mi SSE 8.1 mph - N/A   Unknown
9:30 AM 64.4 °F 53.6 °F 68% 30.04 in 6.2 mi South 6.9 mph - N/A   Unknown
10:00 AM 66.2 °F 51.8 °F 60% 30.04 in 6.2 mi SSW 8.1 mph - N/A   Unknown
10:30 AM 66.2 °F 51.8 °F 60% 30.04 in 6.2 mi SSW 8.1 mph - N/A   Unknown
11:00 AM 66.2 °F 51.8 °F 60% 30.04 in 6.2 mi SW 8.1 mph - N/A   Unknown
11:30 AM 66.2 °F 51.8 °F 60% 30.04 in 6.2 mi SW 11.5 mph - N/A   Partly Cloudy
12:00 PM 68.0 °F 53.6 °F 60% 30.06 in 6.2 mi SW 13.8 mph - N/A   Scattered Clouds
12:30 PM 68.0 °F 53.6 °F 60% 30.06 in 6.2 mi SW 12.7 mph - N/A   Partly Cloudy
1:00 PM 69.8 °F 51.8 °F 53% 30.06 in 6.2 mi SW 13.8 mph - N/A   Partly Cloudy
1:30 PM 68.0 °F 51.8 °F 56% 30.06 in 6.2 mi SW 13.8 mph - N/A   Mostly Cloudy
2:00 PM 68.0 °F 53.6 °F 60% 30.06 in 6.2 mi SW 13.8 mph - N/A   Scattered Clouds
2:30 PM 69.8 °F 51.8 °F 53% 30.04 in 6.2 mi SW 15.0 mph - N/A   Mostly Cloudy
3:00 PM 68.0 °F 51.8 °F 56% 30.04 in 6.2 mi SW 15.0 mph - N/A   Unknown
3:30 PM 69.8 °F 50.0 °F 49% 30.04 in 6.2 mi SW 12.7 mph - N/A   Unknown
4:00 PM 68.0 °F 50.0 °F 52% 30.04 in 6.2 mi SW 12.7 mph - N/A   Unknown
4:30 PM 69.8 °F 53.6 °F 56% 30.04 in 6.2 mi SW 12.7 mph - N/A   Unknown
5:00 PM 68.0 °F 51.8 °F 56% 30.01 in 6.2 mi SW 12.7 mph - N/A   Unknown
5:30 PM 69.8 °F 53.6 °F 56% 30.01 in 6.2 mi SW 12.7 mph - N/A   Unknown
6:00 PM 66.2 °F 51.8 °F 60% 30.01 in 6.2 mi SW 15.0 mph - N/A   Partly Cloudy
6:30 PM 66.2 °F 51.8 °F 60% 30.04 in 6.2 mi SW 13.8 mph - N/A   Unknown
7:00 PM 64.4 °F 50.0 °F 59% 30.04 in 6.2 mi SW 12.7 mph - N/A   Unknown
7:30 PM 64.4 °F 53.6 °F 68% 30.04 in 6.2 mi SW 12.7 mph - N/A   Partly Cloudy
8:00 PM 62.6 °F 51.8 °F 68% 30.04 in 6.2 mi SW 13.8 mph - N/A   Partly Cloudy
8:30 PM 62.6 °F 50.0 °F 63% 30.06 in 6.2 mi SW 13.8 mph - N/A   Partly Cloudy
9:00 PM 60.8 °F 50.0 °F 68% 30.06 in 6.2 mi SW 10.4 mph - N/A   Partly Cloudy
9:30 PM 60.8 °F 50.0 °F 68% 30.06 in 6.2 mi SW 10.4 mph - N/A   Unknown
10:00 PM 60.8 °F 50.0 °F 68% 30.06 in 6.2 mi SW 9.2 mph - N/A   Unknown
10:30 PM 60.8 °F 50.0 °F 68% 30.09 in 6.2 mi SW 9.2 mph - N/A   Partly Cloudy
11:00 PM 60.8 °F 50.0 °F 68% 30.09 in 6.2 mi SW 9.2 mph - N/A   Scattered Clouds
11:30 PM 60.8 °F 50.0 °F 68% 30.09 in 6.2 mi SSW 8.1 mph - N/A   Unknown